Sisseton, SD

5:41 PM CST on December 11, 2017 (GMT -0600)
Sisseton

Weather History for K8D3 - August, 2012

Change the Weather History Date:

Thursday, August 30, 2012

  Actual Average Record
Temperature  
Mean Temperature 66 °F 66 °F  
Max Temperature 82 °F 78 °F 95 °F (1961)
Min Temperature 50 °F 54 °F 37 °F (2009)
Degree Days  
Heating Degree Days 0 2  
Month to date heating degree days 36 26  
Since 1 June heating degree days 63 101  
Since 1 July heating degree days 36 39  
Cooling Degree Days 1 3  
Month to date cooling degree days 108 153  
Year to date cooling degree days 661 475  
Since 1 June cooling degree days 603 452  
Growing Degree Days 18 (Base 50)    
Moisture  
Dew Point 56 °F    
Average Humidity 63    
Maximum Humidity 93    
Minimum Humidity 33    
Precipitation  
Precipitation 0.01 in 0.09 in 0.90 in (1971)
Month to date precipitation 1.06 2.35  
Year to date precipitation 14.27 16.65  
Sea Level Pressure  
Sea Level Pressure 29.75 in    
Wind  
Wind Speed 10 mph (North)    
Max Wind Speed 23 mph    
Max Gust Speed 32 mph    
T = Trace of Precipitation, MM = Missing Value Source: NWS Daily Summary

Daily Weather History Graph

Daily Weather History Graph

Search for Another Location

Airport or City:

Trip Planner

Search our weather history database for the weather conditions in past years. The results will help you decide how hot, cold, wet, or windy it might be!

Date:

Astronomy

Aug. 30, 2012 Rise Set
Actual Time 6:47 AM CDT 8:08 PM CDT
Civil Twilight 6:16 AM CDT 8:39 PM CDT
Nautical Twilight 5:39 AM CDT 9:16 PM CDT
Astronomical Twilight 4:59 AM CDT 9:55 PM CDT
Moon 7:21 PM CDT (8/30) 5:49 AM CDT (8/30)
Length of Visible Light 14h 22m
Length of Day
13h 21m
Waxing Gibbous, 99% of the Moon is Illuminated
Aug 30
Waxing Gibbous
Aug 31
Full
Sep 8
Last Quarter
Sep 15
New
Sep 22
First Quarter

Hourly Weather History & Observations

Time (CDT) Temp. Dew Point Humidity Pressure Visibility Wind Dir Wind Speed Gust Speed Precip Events Conditions
12:56 AM 71.1 °F 66.0 °F 84% 29.56 in - South 9.2 mph - N/A   Unknown
1:56 AM 66.9 °F 64.9 °F 93% 29.55 in - ESE 5.8 mph - N/A   Unknown
2:56 AM 71.1 °F 63.0 °F 75% 29.53 in - SSW 9.2 mph - N/A   Unknown
3:56 AM 81.0 °F 51.1 °F 35% 29.51 in - SSW 5.8 mph - N/A   Unknown
4:56 AM 70.0 °F 64.0 °F 81% 29.57 in - North 10.4 mph - N/A   Unknown
5:56 AM 69.1 °F 64.9 °F 87% 29.59 in - SW 6.9 mph - N/A   Unknown
6:56 AM 69.1 °F 64.9 °F 87% 29.63 in - NNW 9.2 mph - N/A   Unknown
7:56 AM 69.1 °F 66.0 °F 90% 29.68 in - North 12.7 mph - N/A   Unknown
8:56 AM 68.0 °F 60.1 °F 76% 29.71 in - North 12.7 mph - N/A   Unknown
9:56 AM 70.0 °F 54.0 °F 57% 29.68 in - North 18.4 mph 26.5 mph N/A   Unknown
10:56 AM 73.9 °F 52.0 °F 46% 29.78 in - North 20.7 mph 25.3 mph N/A   Unknown
11:56 AM 71.1 °F 59.0 °F 66% 29.78 in - North 10.4 mph - 0.01 in   Unknown
12:56 PM 73.0 °F 54.0 °F 51% 29.79 in - North 17.3 mph 23.0 mph N/A   Unknown
1:56 PM 70.0 °F 57.0 °F 63% 29.84 in - NNW 8.1 mph 18.4 mph N/A   Unknown
2:56 PM 73.9 °F 54.0 °F 50% 29.85 in - North 8.1 mph - N/A   Unknown
3:56 PM 80.1 °F 51.1 °F 36% 29.81 in - NNE 15.0 mph 21.9 mph N/A   Unknown
4:56 PM 81.0 °F 50.0 °F 34% 29.83 in - NNE 17.3 mph 23.0 mph N/A   Unknown
5:56 PM 81.0 °F 48.9 °F 33% 29.85 in - NNE 12.7 mph - N/A   Unknown
6:56 PM 77.0 °F 48.9 °F 37% 29.86 in - NNE 9.2 mph - N/A   Unknown
7:56 PM 66.9 °F 54.0 °F 63% 29.89 in - North 5.8 mph - N/A   Unknown
8:56 PM 62.1 °F 54.0 °F 75% 29.92 in - NNW 5.8 mph - N/A   Unknown
9:56 PM 57.0 °F 52.0 °F 83% 29.94 in - NNW 3.5 mph - N/A   Unknown
10:56 PM 54.0 °F 50.0 °F 86% 29.96 in - North 5.8 mph - N/A   Unknown
11:56 PM 54.0 °F 50.0 °F 86% 29.98 in - NNW 3.5 mph - N/A   Unknown